VLG32QK LEAL-GCXO

Flight info

Callsign VLG32QK
Flight time 2h 35m
Altitude 35000
Route RESTU N851 VJF L82 RUNAX UL82 IBALU UN857 TERTO
Aircraft A320/M-SDE3FGHIRWY/LB1

Departure

Time 2026-04-25 12:12
Airport Alicante-Elche Miguel Hernández Airport (LEAL)

Arrival

Time 2026-04-25 14:48
Airport Tenerife Norte-Ciudad de La Laguna Airport (GCXO)
Time Latitude Longitude Altitude Speed Heading
2026-04-25 11:42 38.28600 -0.55786 98 ft 0 kts
2026-04-25 12:01 38.28597 -0.55786 99 ft 3 kts
2026-04-25 12:02 38.28545 -0.55783 98 ft 4 kts 334°
2026-04-25 12:02 38.28525 -0.55763 98 ft 4 kts 294°
2026-04-25 12:02 38.28522 -0.55752 98 ft 0 kts 280°
2026-04-25 12:06 38.28522 -0.55753 98 ft 0 kts 280°
2026-04-25 12:06 38.28527 -0.55790 98 ft 5 kts 280°
2026-04-25 12:06 38.28533 -0.55829 99 ft 4 kts 280°
2026-04-25 12:07 38.28542 -0.55898 98 ft 11 kts 280°
2026-04-25 12:07 38.28550 -0.55983 99 ft 8 kts 262°
2026-04-25 12:07 38.28511 -0.56018 98 ft 7 kts 189°
2026-04-25 12:07 38.28448 -0.56032 97 ft 9 kts 195°
2026-04-25 12:08 38.28434 -0.56101 97 ft 10 kts 281°
2026-04-25 12:08 38.28449 -0.56208 100 ft 15 kts 280°
2026-04-25 12:08 38.28471 -0.56356 104 ft 18 kts 282°
2026-04-25 12:08 38.28492 -0.56509 113 ft 15 kts 278°
2026-04-25 12:09 38.28507 -0.56615 117 ft 10 kts 280°
2026-04-25 12:09 38.28519 -0.56707 121 ft 12 kts 280°
2026-04-25 12:09 38.28536 -0.56824 126 ft 15 kts 280°
2026-04-25 12:09 38.28555 -0.56966 132 ft 18 kts 280°
2026-04-25 12:10 38.28574 -0.57098 138 ft 12 kts 280°
2026-04-25 12:10 38.28590 -0.57214 143 ft 16 kts 280°
2026-04-25 12:10 38.28606 -0.57333 148 ft 11 kts 280°
2026-04-25 12:10 38.28618 -0.57421 152 ft 10 kts 280°
2026-04-25 12:11 38.28598 -0.57495 153 ft 11 kts 212°
2026-04-25 12:11 38.28521 -0.57515 152 ft 10 kts 189°
2026-04-25 12:11 38.28462 -0.57503 153 ft 7 kts 139°
2026-04-25 12:11 38.28440 -0.57412 151 ft 19 kts 100°
2026-04-25 12:12 38.28380 -0.56982 138 ft 84 kts 100°
2026-04-25 12:12 38.28294 -0.56365 115 ft 125 kts 100°
2026-04-25 12:12 38.28042 -0.54591 372 ft 162 kts 99°
2026-04-25 12:12 38.27818 -0.53189 1037 ft 163 kts 101°
2026-04-25 12:13 38.27575 -0.51747 1614 ft 167 kts 101°
2026-04-25 12:13 38.27325 -0.50279 1948 ft 181 kts 100°
2026-04-25 12:13 38.27054 -0.48618 2192 ft 201 kts 100°
2026-04-25 12:13 38.26747 -0.46766 2404 ft 225 kts 100°
2026-04-25 12:14 38.26424 -0.44796 3090 ft 229 kts 99°
2026-04-25 12:14 38.26086 -0.42806 3839 ft 232 kts 99°
2026-04-25 12:14 38.25756 -0.40779 4640 ft 234 kts 100°
2026-04-25 12:14 38.25436 -0.38733 5379 ft 238 kts 100°
2026-04-25 12:15 38.25118 -0.36664 6168 ft 239 kts 101°
2026-04-25 12:15 38.24794 -0.34586 6925 ft 241 kts 102°
2026-04-25 12:15 38.24172 -0.32605 7596 ft 246 kts 126°
2026-04-25 12:15 38.22867 -0.31190 8322 ft 251 kts 152°
2026-04-25 12:16 38.21157 -0.30662 9057 ft 260 kts 177°
2026-04-25 12:16 38.19381 -0.31214 9735 ft 273 kts 206°
2026-04-25 12:16 38.18011 -0.32878 10390 ft 284 kts 237°
2026-04-25 12:16 38.17466 -0.35330 11009 ft 292 kts 271°
2026-04-25 12:17 38.17986 -0.37778 11612 ft 295 kts 300°
2026-04-25 12:17 38.19010 -0.40047 12274 ft 297 kts 301°
2026-04-25 12:17 38.20066 -0.42316 12931 ft 300 kts 302°
2026-04-25 12:17 38.21136 -0.44605 13559 ft 303 kts 302°
2026-04-25 12:18 38.22211 -0.46919 14163 ft 305 kts 301°
2026-04-25 12:18 38.23291 -0.49264 14727 ft 308 kts 301°
2026-04-25 12:18 38.24373 -0.51621 15288 ft 309 kts 301°
2026-04-25 12:18 38.25458 -0.53996 15840 ft 312 kts 301°
2026-04-25 12:19 38.26848 -0.58244 16664 ft 321 kts 281°
2026-04-25 12:19 38.27158 -0.62155 16827 ft 344 kts 273°
2026-04-25 12:19 38.27329 -0.65272 16962 ft 361 kts 273°
2026-04-25 12:20 38.27512 -0.68527 17094 ft 377 kts 274°
2026-04-25 12:20 38.27706 -0.71917 17312 ft 390 kts 274°
2026-04-25 12:20 38.27838 -0.74210 17603 ft 393 kts 274°
2026-04-25 12:20 38.28040 -0.77694 18123 ft 397 kts 274°
2026-04-25 12:21 38.28246 -0.81221 18636 ft 400 kts 274°
2026-04-25 12:21 38.28450 -0.84761 19122 ft 403 kts 274°
2026-04-25 12:21 38.28654 -0.88333 19589 ft 405 kts 274°
2026-04-25 12:21 38.28815 -0.91922 20064 ft 407 kts 269°
2026-04-25 12:22 38.28534 -0.95516 20548 ft 409 kts 257°
2026-04-25 12:22 38.27712 -0.98983 21008 ft 410 kts 246°
2026-04-25 12:22 38.26383 -1.02195 21486 ft 410 kts 234°
2026-04-25 12:22 38.24626 -1.05062 21961 ft 412 kts 228°
2026-04-25 12:23 38.22772 -1.07851 22425 ft 414 kts 228°
2026-04-25 12:23 38.20927 -1.10625 22874 ft 417 kts 228°
2026-04-25 12:23 38.19049 -1.13446 23300 ft 420 kts 228°
2026-04-25 12:23 38.17156 -1.16287 23746 ft 422 kts 228°
2026-04-25 12:24 38.15248 -1.19149 24139 ft 425 kts 228°
2026-04-25 12:24 38.13334 -1.22018 24501 ft 427 kts 228°
2026-04-25 12:24 38.11413 -1.24901 24853 ft 429 kts 228°
2026-04-25 12:24 38.09476 -1.27806 25188 ft 431 kts 228°
2026-04-25 12:25 38.07534 -1.30719 25520 ft 433 kts 228°
2026-04-25 12:25 38.05583 -1.33644 25849 ft 435 kts 227°
2026-04-25 12:25 38.03623 -1.36579 26179 ft 437 kts 227°
2026-04-25 12:25 38.01652 -1.39527 26510 ft 439 kts 227°
2026-04-25 12:26 37.99668 -1.42490 26817 ft 441 kts 227°
2026-04-25 12:26 37.97675 -1.45462 27127 ft 443 kts 227°
2026-04-25 12:26 37.95671 -1.48442 27432 ft 445 kts 227°
2026-04-25 12:26 37.93653 -1.51438 27734 ft 447 kts 227°
2026-04-25 12:27 37.91667 -1.54478 28025 ft 450 kts 232°
2026-04-25 12:27 37.89992 -1.57845 28295 ft 454 kts 241°
2026-04-25 12:27 37.88632 -1.61470 28558 ft 457 kts 243°
2026-04-25 12:27 37.87286 -1.65114 28830 ft 458 kts 243°
2026-04-25 12:28 37.85925 -1.68769 29106 ft 460 kts 243°
2026-04-25 12:28 37.84550 -1.72433 29367 ft 462 kts 243°
2026-04-25 12:28 37.83171 -1.76106 29631 ft 463 kts 243°
2026-04-25 12:28 37.81787 -1.79794 29888 ft 465 kts 243°
2026-04-25 12:29 37.80400 -1.83496 30141 ft 466 kts 243°
2026-04-25 12:29 37.79013 -1.87205 30359 ft 467 kts 243°
2026-04-25 12:29 37.77617 -1.90921 30555 ft 469 kts 243°
2026-04-25 12:29 37.76214 -1.94645 30750 ft 470 kts 243°
2026-04-25 12:30 37.74809 -1.98374 31046 ft 469 kts 243°
2026-04-25 12:30 37.73409 -2.02089 31297 ft 468 kts 242°
2026-04-25 12:30 37.72026 -2.05752 31535 ft 468 kts 242°
2026-04-25 12:30 37.70622 -2.09463 31786 ft 468 kts 242°
2026-04-25 12:31 37.69221 -2.13170 32041 ft 468 kts 242°
2026-04-25 12:31 37.67815 -2.16880 32309 ft 468 kts 242°
2026-04-25 12:31 37.66410 -2.20585 32573 ft 468 kts 242°
2026-04-25 12:31 37.65002 -2.24291 32828 ft 468 kts 242°
2026-04-25 12:32 37.63592 -2.27996 33086 ft 468 kts 242°
2026-04-25 12:32 37.62184 -2.31691 33336 ft 468 kts 242°
2026-04-25 12:32 37.60773 -2.35390 33573 ft 468 kts 242°
2026-04-25 12:32 37.59361 -2.39093 33817 ft 468 kts 242°
2026-04-25 12:33 37.57950 -2.42795 34047 ft 468 kts 242°
2026-04-25 12:33 37.56538 -2.46493 34251 ft 469 kts 242°
2026-04-25 12:33 37.55123 -2.50189 34470 ft 468 kts 242°
2026-04-25 12:33 37.53706 -2.53882 34694 ft 467 kts 242°
2026-04-25 12:34 37.52295 -2.57561 34919 ft 466 kts 242°
2026-04-25 12:34 37.50884 -2.61241 35081 ft 465 kts 242°
2026-04-25 12:34 37.49484 -2.64895 35125 ft 462 kts 242°
2026-04-25 12:35 37.46704 -2.72117 35121 ft 460 kts 242°
2026-04-25 12:35 37.43891 -2.79396 35114 ft 459 kts 242°
2026-04-25 12:36 37.41106 -2.86585 35111 ft 459 kts 242°
2026-04-25 12:36 37.38310 -2.93808 35111 ft 459 kts 242°
2026-04-25 12:37 37.35510 -3.01021 35111 ft 459 kts 242°
2026-04-25 12:37 37.32699 -3.08241 35105 ft 459 kts 242°
2026-04-25 12:38 37.29888 -3.15443 35105 ft 459 kts 242°
2026-04-25 12:38 37.27079 -3.22600 35107 ft 460 kts 242°
2026-04-25 12:39 37.24243 -3.29808 35103 ft 460 kts 242°
2026-04-25 12:39 37.21419 -3.37008 35108 ft 460 kts 242°
2026-04-25 12:40 37.18591 -3.44200 35108 ft 459 kts 242°
2026-04-25 12:40 37.15760 -3.51368 35115 ft 459 kts 242°
2026-04-25 12:41 37.12921 -3.58524 35116 ft 458 kts 242°
2026-04-25 12:41 37.10083 -3.65665 35122 ft 457 kts 242°
2026-04-25 12:42 37.07261 -3.72758 35124 ft 457 kts 242°
2026-04-25 12:42 37.04419 -3.79868 35126 ft 456 kts 242°
2026-04-25 12:43 37.01581 -3.86964 35124 ft 455 kts 242°
2026-04-25 12:43 36.97338 -3.97577 35118 ft 454 kts 242°
2026-04-25 12:44 36.94503 -4.04641 35117 ft 454 kts 242°
2026-04-25 12:45 36.90259 -4.15152 35112 ft 453 kts 242°
2026-04-25 12:45 36.86000 -4.25674 35118 ft 452 kts 243°
2026-04-25 12:46 36.83164 -4.32676 35119 ft 451 kts 243°
2026-04-25 12:46 36.80596 -4.39815 35119 ft 451 kts 250°
2026-04-25 12:47 36.78480 -4.47125 35114 ft 450 kts 250°
2026-04-25 12:47 36.76343 -4.54464 35111 ft 450 kts 250°
2026-04-25 12:48 36.74201 -4.61783 35104 ft 449 kts 250°
2026-04-25 12:48 36.72051 -4.69099 35100 ft 449 kts 251°
2026-04-25 12:49 36.69900 -4.76408 35096 ft 449 kts 251°
2026-04-25 12:49 36.67749 -4.83711 35097 ft 449 kts 251°
2026-04-25 12:50 36.65594 -4.90997 35093 ft 448 kts 251°
2026-04-25 12:50 36.63439 -4.98266 35094 ft 447 kts 251°
2026-04-25 12:51 36.61278 -5.05530 35097 ft 447 kts 251°
2026-04-25 12:51 36.59123 -5.12772 35099 ft 446 kts 251°
2026-04-25 12:52 36.56963 -5.20011 35097 ft 446 kts 252°
2026-04-25 12:52 36.54805 -5.27224 35092 ft 445 kts 252°
2026-04-25 12:53 36.52635 -5.34432 35087 ft 445 kts 252°
2026-04-25 12:53 36.50396 -5.41593 35086 ft 445 kts 246°
2026-04-25 12:54 36.47332 -5.48311 35080 ft 447 kts 242°
2026-04-25 12:54 36.44185 -5.54964 35077 ft 447 kts 242°
2026-04-25 12:55 36.41567 -5.60493 35076 ft 446 kts 242°
2026-04-25 12:55 36.37912 -5.68207 35069 ft 446 kts 243°
2026-04-25 12:56 36.34768 -5.74829 35069 ft 445 kts 243°
2026-04-25 12:56 36.31623 -5.81438 35071 ft 444 kts 243°
2026-04-25 12:57 36.28484 -5.88029 35068 ft 443 kts 243°
2026-04-25 12:57 36.25341 -5.94603 35072 ft 443 kts 243°
2026-04-25 12:58 36.21861 -6.00928 35071 ft 446 kts 237°
2026-04-25 12:58 36.18109 -6.07038 35066 ft 445 kts 237°
2026-04-25 12:59 36.14367 -6.13124 35073 ft 444 kts 237°
2026-04-25 12:59 36.10632 -6.19202 35064 ft 443 kts 237°
2026-04-25 13:00 36.09395 -6.21210 35067 ft 443 kts 237°
2026-04-25 13:00 36.03181 -6.31271 35060 ft 442 kts 237°
2026-04-25 13:01 35.99441 -6.37312 35054 ft 442 kts 237°
2026-04-25 13:01 35.95692 -6.43347 35052 ft 442 kts 237°
2026-04-25 13:02 35.91949 -6.49366 35043 ft 442 kts 237°
2026-04-25 13:02 35.88230 -6.55341 35042 ft 441 kts 237°
2026-04-25 13:03 35.84493 -6.61349 35041 ft 441 kts 237°
2026-04-25 13:03 35.80755 -6.67348 35041 ft 441 kts 237°
2026-04-25 13:04 35.77013 -6.73328 35042 ft 441 kts 237°
2026-04-25 13:04 35.73270 -6.79302 35039 ft 440 kts 237°
2026-04-25 13:05 35.69522 -6.85266 35041 ft 440 kts 237°
2026-04-25 13:05 35.65782 -6.91217 35042 ft 439 kts 237°
2026-04-25 13:06 35.62047 -6.97151 35045 ft 438 kts 237°
2026-04-25 13:06 35.58334 -7.03040 35046 ft 438 kts 237°
2026-04-25 13:07 35.54597 -7.08947 35046 ft 437 kts 237°
2026-04-25 13:07 35.50872 -7.14846 35051 ft 436 kts 237°
2026-04-25 13:08 35.47147 -7.20725 35044 ft 436 kts 237°
2026-04-25 13:08 35.43423 -7.26579 35050 ft 435 kts 237°
2026-04-25 13:09 35.40325 -7.31445 35053 ft 435 kts 236°
2026-04-25 13:09 35.36608 -7.37279 35056 ft 434 kts 236°
2026-04-25 13:10 35.32892 -7.43109 35056 ft 434 kts 236°
2026-04-25 13:10 35.29180 -7.48925 35057 ft 433 kts 236°
2026-04-25 13:11 35.25460 -7.54718 35059 ft 432 kts 236°
2026-04-25 13:11 35.21745 -7.60502 35058 ft 432 kts 236°
2026-04-25 13:12 35.18039 -7.66279 35061 ft 432 kts 236°
2026-04-25 13:12 35.14957 -7.71073 35059 ft 431 kts 236°
2026-04-25 13:13 35.10647 -7.77759 35061 ft 430 kts 236°
2026-04-25 13:13 35.06939 -7.83499 35064 ft 430 kts 236°
2026-04-25 13:14 35.03236 -7.89234 35064 ft 430 kts 236°
2026-04-25 13:14 34.99530 -7.94951 35062 ft 429 kts 236°
2026-04-25 13:15 34.95823 -8.00661 35063 ft 429 kts 236°
2026-04-25 13:15 34.92122 -8.06364 35063 ft 429 kts 236°
2026-04-25 13:16 34.88418 -8.12056 35060 ft 428 kts 236°
2026-04-25 13:16 34.84711 -8.17735 35059 ft 428 kts 235°
2026-04-25 13:17 34.81033 -8.23367 35058 ft 428 kts 235°
2026-04-25 13:17 34.77327 -8.29039 35055 ft 427 kts 235°
2026-04-25 13:18 34.73621 -8.34694 35053 ft 427 kts 235°
2026-04-25 13:18 34.69914 -8.40349 35050 ft 427 kts 235°
2026-04-25 13:19 34.66204 -8.45989 35046 ft 427 kts 235°
2026-04-25 13:19 34.63112 -8.50681 35048 ft 428 kts 234°
2026-04-25 13:20 34.58766 -8.57273 35053 ft 428 kts 234°
2026-04-25 13:20 34.55046 -8.62908 35052 ft 428 kts 234°
2026-04-25 13:21 34.51321 -8.68533 35051 ft 427 kts 234°
2026-04-25 13:21 34.47598 -8.74155 35049 ft 428 kts 234°
2026-04-25 13:22 34.43716 -8.79567 35044 ft 431 kts 224°
2026-04-25 13:23 34.36687 -8.86392 35040 ft 432 kts 221°
2026-04-25 13:23 34.31971 -8.90910 35038 ft 432 kts 221°
2026-04-25 13:24 34.27261 -8.95423 35038 ft 432 kts 221°
2026-04-25 13:24 34.22546 -8.99945 35037 ft 432 kts 221°
2026-04-25 13:25 34.17829 -9.04458 35038 ft 433 kts 221°
2026-04-25 13:25 34.13104 -9.08969 35038 ft 433 kts 221°
2026-04-25 13:26 34.08380 -9.13478 35045 ft 433 kts 221°
2026-04-25 13:26 34.03643 -9.17979 35042 ft 433 kts 220°
2026-04-25 13:27 33.98909 -9.22469 35043 ft 433 kts 220°
2026-04-25 13:27 33.94183 -9.26965 35043 ft 433 kts 220°
2026-04-25 13:28 33.89460 -9.31455 35042 ft 433 kts 220°
2026-04-25 13:28 33.84721 -9.35940 35040 ft 433 kts 220°
2026-04-25 13:29 33.80014 -9.40384 35046 ft 433 kts 220°
2026-04-25 13:29 33.75278 -9.44845 35045 ft 433 kts 220°
2026-04-25 13:30 33.68176 -9.51544 35044 ft 432 kts 220°
2026-04-25 13:31 33.61077 -9.58220 35045 ft 432 kts 220°
2026-04-25 13:31 33.56353 -9.62659 35045 ft 431 kts 220°
2026-04-25 13:32 33.51618 -9.67089 35040 ft 431 kts 220°
2026-04-25 13:32 33.46890 -9.71512 35039 ft 431 kts 220°
2026-04-25 13:33 33.42165 -9.75922 35037 ft 431 kts 220°
2026-04-25 13:33 33.37436 -9.80338 35039 ft 431 kts 220°
2026-04-25 13:34 33.32708 -9.84736 35038 ft 430 kts 219°
2026-04-25 13:34 33.28010 -9.89095 35042 ft 430 kts 219°
2026-04-25 13:35 33.23290 -9.93487 35043 ft 430 kts 219°
2026-04-25 13:35 33.18569 -9.97876 35041 ft 430 kts 219°
2026-04-25 13:36 33.13842 -10.02254 35045 ft 429 kts 219°
2026-04-25 13:36 33.09123 -10.06630 35061 ft 429 kts 219°
2026-04-25 13:37 33.04406 -10.10987 35052 ft 429 kts 219°
2026-04-25 13:37 32.99689 -10.15328 35042 ft 429 kts 219°
2026-04-25 13:38 32.94963 -10.19678 35050 ft 429 kts 219°
2026-04-25 13:38 32.90241 -10.24017 35051 ft 429 kts 219°
2026-04-25 13:39 32.85553 -10.28328 35050 ft 428 kts 219°
2026-04-25 13:39 32.80836 -10.32648 35044 ft 428 kts 219°
2026-04-25 13:40 32.77682 -10.35532 35041 ft 427 kts 219°
2026-04-25 13:40 32.71411 -10.41261 35039 ft 427 kts 219°
2026-04-25 13:41 32.66703 -10.45556 35043 ft 427 kts 218°
2026-04-25 13:41 32.61990 -10.49839 35046 ft 427 kts 218°
2026-04-25 13:42 32.57279 -10.54124 35043 ft 427 kts 218°
2026-04-25 13:42 32.52574 -10.58410 35044 ft 426 kts 218°
2026-04-25 13:43 32.47907 -10.62654 35054 ft 426 kts 218°
2026-04-25 13:43 32.43198 -10.66916 35058 ft 426 kts 218°
2026-04-25 13:44 32.38492 -10.71165 35050 ft 425 kts 218°
2026-04-25 13:44 32.33789 -10.75409 35046 ft 425 kts 218°
2026-04-25 13:45 32.29097 -10.79647 35049 ft 424 kts 218°
2026-04-25 13:45 32.24413 -10.83875 35053 ft 423 kts 218°
2026-04-25 13:46 32.19734 -10.88094 35040 ft 423 kts 218°
2026-04-25 13:46 32.15051 -10.92305 35034 ft 423 kts 218°
2026-04-25 13:47 32.10397 -10.96486 35024 ft 423 kts 217°
2026-04-25 13:47 32.05699 -11.00699 35022 ft 424 kts 217°
2026-04-25 13:48 32.01000 -11.04911 35016 ft 425 kts 217°
2026-04-25 13:48 31.96292 -11.09123 35019 ft 425 kts 217°
2026-04-25 13:49 31.91581 -11.13325 35014 ft 425 kts 217°
2026-04-25 13:49 31.86860 -11.17540 35014 ft 426 kts 217°
2026-04-25 13:50 31.82128 -11.21757 35014 ft 427 kts 217°
2026-04-25 13:50 31.77379 -11.25980 35015 ft 427 kts 217°
2026-04-25 13:51 31.72668 -11.30164 35016 ft 427 kts 217°
2026-04-25 13:51 31.67902 -11.34413 35032 ft 427 kts 217°
2026-04-25 13:52 31.63168 -11.38641 35030 ft 427 kts 217°
2026-04-25 13:52 31.58463 -11.42822 35039 ft 427 kts 217°
2026-04-25 13:53 31.53737 -11.47029 35037 ft 426 kts 217°
2026-04-25 13:53 31.49026 -11.51224 35040 ft 425 kts 217°
2026-04-25 13:54 31.44317 -11.55399 35043 ft 424 kts 217°
2026-04-25 13:54 31.39611 -11.59548 35031 ft 423 kts 217°
2026-04-25 13:55 31.35712 -11.62990 35035 ft 422 kts 217°
2026-04-25 13:55 31.31026 -11.67127 35027 ft 422 kts 217°
2026-04-25 13:56 31.26336 -11.71268 35029 ft 422 kts 217°
2026-04-25 13:56 31.21639 -11.75408 35044 ft 423 kts 217°
2026-04-25 13:57 31.16934 -11.79539 35026 ft 423 kts 217°
2026-04-25 13:57 31.12219 -11.83686 35027 ft 424 kts 217°
2026-04-25 13:58 31.07500 -11.87820 35027 ft 424 kts 216°
2026-04-25 13:58 31.02794 -11.91935 35028 ft 425 kts 216°
2026-04-25 13:59 30.98063 -11.96079 35026 ft 426 kts 216°
2026-04-25 13:59 30.93327 -12.00230 35022 ft 426 kts 216°
2026-04-25 14:00 30.88567 -12.04379 35023 ft 427 kts 216°
2026-04-25 14:00 30.83803 -12.08525 35022 ft 428 kts 216°
2026-04-25 14:01 30.79028 -12.12681 35022 ft 429 kts 216°
2026-04-25 14:01 30.74239 -12.16847 35018 ft 430 kts 217°
2026-04-25 14:02 30.69437 -12.21013 35013 ft 430 kts 217°
2026-04-25 14:02 30.64628 -12.25175 35018 ft 431 kts 217°
2026-04-25 14:03 30.59848 -12.29318 35025 ft 431 kts 217°
2026-04-25 14:03 30.55036 -12.33489 35032 ft 431 kts 217°
2026-04-25 14:04 30.50220 -12.37651 35038 ft 431 kts 217°
2026-04-25 14:04 30.45398 -12.41795 35050 ft 431 kts 217°
2026-04-25 14:05 30.40579 -12.45938 35056 ft 431 kts 218°
2026-04-25 14:05 30.35769 -12.50071 35061 ft 431 kts 218°
2026-04-25 14:06 30.30953 -12.54191 35065 ft 430 kts 218°
2026-04-25 14:06 30.26136 -12.58303 35055 ft 430 kts 218°
2026-04-25 14:07 30.21321 -12.62415 35060 ft 430 kts 218°
2026-04-25 14:07 30.16510 -12.66526 35055 ft 430 kts 218°
2026-04-25 14:08 30.11696 -12.70626 35059 ft 430 kts 218°
2026-04-25 14:08 30.06910 -12.74706 35050 ft 430 kts 218°
2026-04-25 14:09 30.02115 -12.78813 35051 ft 429 kts 218°
2026-04-25 14:09 29.97310 -12.82916 35052 ft 429 kts 218°
2026-04-25 14:10 29.92503 -12.87019 35048 ft 430 kts 218°
2026-04-25 14:10 29.87684 -12.91123 35059 ft 430 kts 218°
2026-04-25 14:11 29.82897 -12.95189 35059 ft 430 kts 218°
2026-04-25 14:11 29.78086 -12.99273 35062 ft 430 kts 218°
2026-04-25 14:12 29.73267 -13.03362 35053 ft 430 kts 218°
2026-04-25 14:12 29.68460 -13.07436 35059 ft 429 kts 218°
2026-04-25 14:13 29.63648 -13.11509 35054 ft 429 kts 218°
2026-04-25 14:13 29.58832 -13.15585 35056 ft 429 kts 218°
2026-04-25 14:14 29.54019 -13.19644 35051 ft 429 kts 218°
2026-04-25 14:14 29.49199 -13.23707 35056 ft 430 kts 218°
2026-04-25 14:15 29.44407 -13.27736 35056 ft 430 kts 218°
2026-04-25 14:15 29.39587 -13.31795 35054 ft 429 kts 218°
2026-04-25 14:16 29.34770 -13.35845 35063 ft 429 kts 218°
2026-04-25 14:16 29.29945 -13.39890 35060 ft 429 kts 218°
2026-04-25 14:17 29.25120 -13.43924 35059 ft 429 kts 219°
2026-04-25 14:17 29.20353 -13.48011 35052 ft 427 kts 224°
2026-04-25 14:18 29.16687 -13.53249 35049 ft 420 kts 244°
2026-04-25 14:18 29.14768 -13.59502 35039 ft 417 kts 257°
2026-04-25 14:19 29.13373 -13.65944 35040 ft 417 kts 257°
2026-04-25 14:19 29.11967 -13.72379 35042 ft 417 kts 257°
2026-04-25 14:20 29.10567 -13.78773 35052 ft 417 kts 257°
2026-04-25 14:20 29.09153 -13.85200 35059 ft 417 kts 257°
2026-04-25 14:21 29.07739 -13.91621 35072 ft 416 kts 257°
2026-04-25 14:21 29.06324 -13.98040 35079 ft 416 kts 257°
2026-04-25 14:22 29.04912 -14.04444 35085 ft 415 kts 257°
2026-04-25 14:22 29.03495 -14.10835 35091 ft 415 kts 257°
2026-04-25 14:23 29.02080 -14.17230 35087 ft 414 kts 257°
2026-04-25 14:23 29.00673 -14.23563 35091 ft 414 kts 257°
2026-04-25 14:24 28.99250 -14.29928 35089 ft 413 kts 257°
2026-04-25 14:24 28.97830 -14.36285 34761 ft 412 kts 257°
2026-04-25 14:24 28.97121 -14.39443 34521 ft 410 kts 257°
2026-04-25 14:25 28.96415 -14.42590 34287 ft 408 kts 257°
2026-04-25 14:25 28.95712 -14.45719 34057 ft 406 kts 257°
2026-04-25 14:25 28.95012 -14.48839 33795 ft 405 kts 257°
2026-04-25 14:26 28.93622 -14.55005 32959 ft 396 kts 257°
2026-04-25 14:26 28.92941 -14.58033 32469 ft 392 kts 257°
2026-04-25 14:26 28.92265 -14.61036 31993 ft 388 kts 257°
2026-04-25 14:26 28.91594 -14.64006 31521 ft 385 kts 257°
2026-04-25 14:27 28.90924 -14.66958 31052 ft 383 kts 257°
2026-04-25 14:27 28.90259 -14.69886 30592 ft 380 kts 257°
2026-04-25 14:27 28.89606 -14.72763 30140 ft 378 kts 257°
2026-04-25 14:27 28.88948 -14.75656 29642 ft 375 kts 257°
2026-04-25 14:28 28.88294 -14.78529 29197 ft 371 kts 257°
2026-04-25 14:28 28.87648 -14.81370 28724 ft 369 kts 257°
2026-04-25 14:28 28.86949 -14.84170 28266 ft 367 kts 252°
2026-04-25 14:28 28.86080 -14.86894 27823 ft 364 kts 252°
2026-04-25 14:29 28.85216 -14.89598 27367 ft 361 kts 252°
2026-04-25 14:29 28.84359 -14.92279 26951 ft 358 kts 251°
2026-04-25 14:29 28.83507 -14.94939 26525 ft 356 kts 251°
2026-04-25 14:29 28.82660 -14.97580 26094 ft 353 kts 251°
2026-04-25 14:30 28.81819 -15.00204 25660 ft 351 kts 251°
2026-04-25 14:30 28.80155 -15.05401 24771 ft 348 kts 252°
2026-04-25 14:30 28.79327 -15.07984 24318 ft 346 kts 252°
2026-04-25 14:31 28.78502 -15.10562 23868 ft 346 kts 252°
2026-04-25 14:31 28.77677 -15.13136 23359 ft 345 kts 252°
2026-04-25 14:31 28.76851 -15.15701 22883 ft 343 kts 251°
2026-04-25 14:31 28.76040 -15.18213 22423 ft 341 kts 251°
2026-04-25 14:32 28.75222 -15.20746 21968 ft 340 kts 251°
2026-04-25 14:32 28.74408 -15.23270 21520 ft 338 kts 252°
2026-04-25 14:32 28.73602 -15.25779 21076 ft 337 kts 252°
2026-04-25 14:32 28.72795 -15.28284 20634 ft 336 kts 252°
2026-04-25 14:33 28.71992 -15.30777 20194 ft 335 kts 252°
2026-04-25 14:33 28.71186 -15.33268 19758 ft 335 kts 252°
2026-04-25 14:33 28.70380 -15.35758 19323 ft 334 kts 251°
2026-04-25 14:33 28.69576 -15.38248 18881 ft 334 kts 251°
2026-04-25 14:34 28.68772 -15.40732 18453 ft 334 kts 251°
2026-04-25 14:34 28.67967 -15.43214 17993 ft 334 kts 251°
2026-04-25 14:34 28.67165 -15.45692 17557 ft 333 kts 251°
2026-04-25 14:34 28.66366 -15.48156 17130 ft 331 kts 251°
2026-04-25 14:35 28.65569 -15.50610 16712 ft 330 kts 251°
2026-04-25 14:35 28.64775 -15.53055 16302 ft 329 kts 251°
2026-04-25 14:35 28.63982 -15.55495 15891 ft 328 kts 251°
2026-04-25 14:35 28.63191 -15.57925 15490 ft 327 kts 251°
2026-04-25 14:36 28.62402 -15.60350 15083 ft 326 kts 251°
2026-04-25 14:36 28.61615 -15.62766 14680 ft 326 kts 251°
2026-04-25 14:36 28.60835 -15.65151 14278 ft 325 kts 251°
2026-04-25 14:36 28.60045 -15.67564 13882 ft 325 kts 251°
2026-04-25 14:37 28.59259 -15.69971 13445 ft 324 kts 251°
2026-04-25 14:37 28.58474 -15.72374 13036 ft 322 kts 251°
2026-04-25 14:37 28.57696 -15.74755 12628 ft 321 kts 251°
2026-04-25 14:37 28.56917 -15.77130 12222 ft 319 kts 251°
2026-04-25 14:38 28.56148 -15.79478 11949 ft 313 kts 251°
2026-04-25 14:38 28.55400 -15.81758 11452 ft 306 kts 251°
2026-04-25 14:38 28.54628 -15.84117 10718 ft 326 kts 251°
2026-04-25 14:38 28.53841 -15.86510 10263 ft 314 kts 251°
2026-04-25 14:39 28.53596 -15.87254 10212 ft 307 kts 251°
2026-04-25 14:39 28.53163 -15.88572 9725 ft 304 kts 252°
2026-04-25 14:39 28.52434 -15.90805 9387 ft 297 kts 251°
2026-04-25 14:39 28.51733 -15.92941 9236 ft 289 kts 251°
2026-04-25 14:40 28.51032 -15.95072 8889 ft 286 kts 251°
2026-04-25 14:40 28.50333 -15.97190 8492 ft 285 kts 251°
2026-04-25 14:40 28.49641 -15.99293 8131 ft 282 kts 251°
2026-04-25 14:40 28.48968 -16.01330 8059 ft 269 kts 252°
2026-04-25 14:41 28.48327 -16.03269 7964 ft 256 kts 252°
2026-04-25 14:41 28.47703 -16.05118 7855 ft 245 kts 248°
2026-04-25 14:41 28.46756 -16.06703 7750 ft 244 kts 226°
2026-04-25 14:41 28.45357 -16.07822 7394 ft 249 kts 205°
2026-04-25 14:42 28.43756 -16.08507 7009 ft 243 kts 202°
2026-04-25 14:42 28.43222 -16.08731 6885 ft 241 kts 202°
2026-04-25 14:42 28.41178 -16.10532 6285 ft 219 kts 251°
2026-04-25 14:42 28.40961 -16.11615 6068 ft 208 kts 273°
2026-04-25 14:43 28.41268 -16.13167 5782 ft 200 kts 292°
2026-04-25 14:43 28.41770 -16.14654 5432 ft 201 kts 292°
2026-04-25 14:43 28.42267 -16.16132 5099 ft 199 kts 292°
2026-04-25 14:43 28.42751 -16.17581 4828 ft 194 kts 292°
2026-04-25 14:44 28.43221 -16.18989 4565 ft 188 kts 292°
2026-04-25 14:44 28.43676 -16.20355 4305 ft 182 kts 292°
2026-04-25 14:44 28.44111 -16.21661 4083 ft 172 kts 293°
2026-04-25 14:44 28.44526 -16.22906 3863 ft 165 kts 293°
2026-04-25 14:45 28.44788 -16.23695 3721 ft 157 kts 293°
2026-04-25 14:45 28.45278 -16.25166 3461 ft 144 kts 294°
2026-04-25 14:45 28.45631 -16.26225 3277 ft 143 kts 295°
2026-04-25 14:45 28.45977 -16.27264 3060 ft 143 kts 294°
2026-04-25 14:46 28.46326 -16.28316 2887 ft 142 kts 294°
2026-04-25 14:46 28.46676 -16.29373 2679 ft 140 kts 294°
2026-04-25 14:46 28.47014 -16.30390 2496 ft 138 kts 293°
2026-04-25 14:46 28.47349 -16.31402 2304 ft 136 kts 292°
2026-04-25 14:47 28.47683 -16.32401 2095 ft 134 kts 292°
2026-04-25 14:47 28.47905 -16.33062 2037 ft 126 kts 288°
2026-04-25 14:47 28.48229 -16.34044 2048 ft 69 kts 290°
2026-04-25 14:47 28.48378 -16.34491 2066 ft 52 kts 291°
2026-04-25 14:48 28.48489 -16.34825 2080 ft 38 kts 291°
2026-04-25 14:48 28.48560 -16.35044 2088 ft 25 kts 292°
2026-04-25 14:48 28.48640 -16.35214 2085 ft 19 kts 304°
2026-04-25 14:48 28.48688 -16.35290 2082 ft 7 kts 306°
2026-04-25 14:49 28.48731 -16.35327 2077 ft 4 kts 358°
2026-04-25 14:49 28.48758 -16.35299 2077 ft 6 kts 74°
2026-04-25 14:49 28.48751 -16.35265 2079 ft 4 kts 114°
2026-04-25 14:49 28.48730 -16.35203 2079 ft 11 kts 108°
2026-04-25 14:50 28.48708 -16.35135 2081 ft 8 kts 111°
2026-04-25 14:50 28.48685 -16.35067 2082 ft 11 kts 111°
2026-04-25 14:50 28.48656 -16.34981 2084 ft 13 kts 108°
2026-04-25 14:50 28.48626 -16.34890 2083 ft 12 kts 111°
2026-04-25 14:51 28.48595 -16.34796 2079 ft 10 kts 110°
2026-04-25 14:51 28.48582 -16.34752 2076 ft 3 kts 109°
2026-04-25 14:51 28.48579 -16.34744 2075 ft 1 kts 110°
2026-04-25 14:51 28.48564 -16.34699 2073 ft 10 kts 111°
2026-04-25 14:52 28.48538 -16.34622 2070 ft 8 kts 110°
2026-04-25 14:52 28.48567 -16.34584 2068 ft 8 kts 10°
2026-04-25 14:52 28.48618 -16.34564 2068 ft 4 kts 21°
2026-04-25 14:52 28.48623 -16.34561 2067 ft 0 kts 21°
2026-04-25 14:53 28.48624 -16.34561 2067 ft 0 kts 21°